CW6421 Weather Reports


time (UTC)temp
F
wind
direction
speed
knots
gust
knots
rain 1hr
in
rain 24hr
in
rain mn
in
humidity
%
barometer
mb
20260507083527 48 65 13.0 19.1 0.00 0.12 0.00 84 1013.0
20260507082527 48 69 11.3 17.4 0.00 0.14 0.00 84 1013.0
20260507080527 48 51 13.0 15.6 0.00 0.16 0.00 85 1012.7
20260507073527 47 45 8.7 14.8 0.00 0.19 0.00 85 1012.7
20260507071529 47 59 9.6 13.9 0.00 0.21 0.00 85 1012.7
20260507070527 47 54 8.7 13.9 0.00 0.22 0.00 85 1012.0
20260507065526 47 58 9.6 14.8 0.00 0.23 0.00 85 1012.0
20260507064529 47 24 8.7 15.6 0.00 0.23 0.00 85 1012.0
20260507063526 47 30 9.6 15.6 0.00 0.24 0.00 85 1012.0
20260507062526 47 26 9.6 14.8 0.00 0.25 0.00 85 1012.0
20260507061530 47 42 7.8 15.6 0.00 0.26 0.00 86 1012.0
20260507060527 47 33 7.8 13.9 0.00 0.26 0.00 86 1011.5
20260507055526 47 37 7.0 14.8 0.00 0.27 0.00 86 1011.5
20260507054529 47 36 7.0 16.5 0.00 0.27 0.00 86 1011.5
20260507053526 47 26 9.6 14.8 0.00 0.28 0.00 86 1011.5
20260507052526 47 38 7.8 14.8 0.00 0.29 0.00 86 1011.5
20260507051529 46 57 9.6 13.9 0.00 0.29 0.00 86 1011.5
20260507050528 46 66 8.7 13.0 0.00 0.30 0.00 86 1011.0
20260507045527 46 52 7.8 13.0 0.00 0.31 0.00 86 1011.0
20260507043526 46 72 8.7 12.2 0.00 0.34 0.00 86 1011.0
20260507042528 46 81 8.7 13.9 0.00 0.35 0.00 86 1011.0
20260507041530 46 45 8.7 14.8 0.00 0.36 0.00 86 1011.0
20260507035527 46 46 9.6 14.8 0.00 0.39 0.00 86 1010.7
20260507034528 46 42 7.8 14.8 0.00 0.40 0.00 86 1010.7
20260507033528 46 42 7.8 13.0 0.00 0.41 0.00 86 1010.7
20260507031528 46 68 10.4 14.8 0.00 0.44 0.00 86 1010.7
20260507025527 46 66 11.3 14.8 0.00 0.48 0.00 86 1010.3
20260507024529 46 58 6.1 13.9 0.00 0.50 0.00 86 1010.3
20260507023526 46 54 7.0 14.8 0.00 0.52 0.00 86 1010.3
20260507022525 46 53 6.1 15.6 0.00 0.54 0.00 86 1010.3
20260507021530 46 55 8.7 14.8 0.00 0.56 0.00 86 1010.3
20260507015526 46 45 8.7 14.8 0.00 0.59 0.00 86 1010.1
20260507014528 46 37 9.6 15.6 0.00 0.60 0.00 86 1010.1
20260507012526 47 21 9.6 14.8 0.00 0.61 0.00 86 1010.1
20260507011528 47 49 7.8 16.5 0.00 0.62 0.00 86 1010.1
20260507010526 47 42 8.7 17.4 0.00 0.63 0.00 86 1009.8
20260507005526 47 57 10.4 14.8 0.00 0.63 0.00 86 1009.8
20260507004529 47 45 11.3 15.6 0.00 0.64 0.00 86 1009.8
20260507003526 47 44 11.3 15.6 0.00 0.64 0.00 86 1009.8
20260507002526 47 30 11.3 14.8 0.00 0.64 0.00 86 1009.8
20260507001529 47 41 11.3 17.4 0.00 0.64 0.00 86 1009.8
20260506235526 47 40 11.3 19.1 0.00 0.65 0.00 86 1009.3
20260506234529 47 45 13.0 17.4 0.00 0.65 0.00 86 1009.3
20260506233526 48 44 12.2 19.1 0.00 0.65 0.00 86 1009.3
20260506231529 48 30 12.2 17.4 0.00 0.65 0.00 86 1009.3
20260506230527 49 39 12.2 13.0 0.00 0.65 0.00 86 1008.8
20260506225527 49 37 12.2 13.9 0.00 0.65 0.00 86 1008.8
20260506224529 50 22 13.9 13.9 0.00 0.65 0.00 87 1008.8
20260506223527 50 26 12.2 14.8 0.00 0.65 0.00 87 1008.8
20260506222527 51 19 12.2 15.6 0.00 0.65 0.00 87 1008.7
20260506221528 51 34 8.7 16.5 0.00 0.65 0.00 87 1008.7
20260506220528 51 45 7.0 16.5 0.00 0.65 0.00 87 1008.7
20260506215527 51 37 6.1 17.4 0.00 0.65 0.00 87 1008.7
20260506214529 51 33 7.8 14.8 0.00 0.65 0.00 87 1008.7
20260506213530 51 42 7.0 17.4 0.00 0.65 0.00 87 1008.7
20260506212526 51 41 6.1 16.5 0.00 0.65 0.00 87 1008.7
20260506211530 51 59 10.4 14.8 0.00 0.65 0.00 88 1008.7
20260506210529 52 66 10.4 13.9 0.00 0.65 0.00 88 1008.5
20260506205528 52 70 8.7 13.0 0.00 0.65 0.00 88 1008.5
20260506204530 52 52 7.8 15.6 0.00 0.65 0.00 88 1008.5
20260506202526 52 50 7.0 15.6 0.00 0.65 0.00 89 1008.5
20260506201528 52 27 7.0 14.8 0.00 0.65 0.00 89 1008.5
20260506200528 52 29 6.1 14.8 0.00 0.65 0.00 89 1008.0
20260506195527 52 22 6.1 14.8 0.00 0.65 0.00 89 1008.0
20260506193526 52 53 7.8 14.8 0.00 0.65 0.00 88 1008.0
20260506192526 52 56 10.4 14.8 0.00 0.65 0.00 88 1008.0
20260506190527 52 63 7.0 13.0 0.00 0.65 0.00 88 1007.3
20260506185527 53 50 7.8 13.0 0.00 0.65 0.00 88 1007.3
20260506184530 53 41 10.4 13.0 0.00 0.65 0.00 88 1007.3
20260506183527 53 45 9.6 12.2 0.00 0.65 0.00 88 1007.3
20260506182526 53 32 7.8 13.9 0.00 0.65 0.00 88 1007.3
20260506181528 53 46 7.0 13.0 0.00 0.65 0.00 88 1007.3
20260506180526 53 48 7.0 11.3 0.00 0.65 0.00 88 1007.1
20260506175527 53 40 9.6 13.0 0.00 0.65 0.00 88 1007.1
20260506174530 54 60 8.7 13.0 0.00 0.65 0.00 89 1007.1
20260506173526 54 42 10.4 13.0 0.00 0.65 0.00 89 1007.1
20260506172527 54 48 8.7 12.2 0.00 0.65 0.00 88 1007.1
20260506171528 54 52 8.7 11.3 0.00 0.66 0.00 89 1007.1
20260506170528 54 60 7.8 10.4 0.00 0.66 0.00 88 1007.2
20260506165527 55 55 7.8 9.6 0.00 0.66 0.00 88 1007.2
20260506164530 55 34 8.7 9.6 0.00 0.66 0.00 88 1007.2
20260506163528 55 24 7.8 11.3 0.00 0.66 0.00 89 1007.2
20260506162528 55 31 7.8 9.6 0.00 0.66 0.00 89 1007.2
20260506161529 55 40 8.7 10.4 0.00 0.66 0.00 89 1007.2
20260506160527 55 23 8.7 12.2 0.00 0.66 0.00 89 1007.3
20260506155527 55 39 7.8 13.9 0.00 0.66 0.00 89 1007.3
20260506154530 55 40 5.2 12.2 0.00 0.66 0.00 89 1007.3
20260506153528 55 44 6.1 13.9 0.00 0.66 0.00 89 1007.3
20260506152527 55 48 7.0 13.0 0.00 0.66 0.00 90 1007.3
20260506151530 55 40 7.0 13.9 0.00 0.66 0.00 90 1007.3
20260506150528 55 37 7.8 10.4 0.00 0.66 0.00 90 1007.1
20260506145527 55 25 7.0 10.4 0.00 0.66 0.00 90 1007.1
20260506144529 55 26 7.0 10.4 0.00 0.66 0.00 91 1007.1
20260506143527 55 36 7.8 11.3 0.00 0.66 0.00 91 1007.1
20260506142527 55 30 7.8 11.3 0.00 0.66 0.00 91 1007.1
20260506140527 55 21 8.7 9.6 0.00 0.66 0.00 91 1006.9
20260506135527 55 17 8.7 10.4 0.00 0.66 0.00 91 1006.9
20260506134530 54 10 6.1 9.6 0.00 0.66 0.00 91 1006.9
20260506133528 54 9 5.2 9.6 0.00 0.66 0.00 91 1006.9
20260506132528 55 3 6.1 10.4 0.00 0.66 0.00 92 1006.9
20260506131530 55 1 7.0 9.6 0.00 0.66 0.00 92 1006.9
20260506130528 54 17 7.0 13.9 0.00 0.66 0.00 92 1006.9
20260506125527 54 11 7.0 12.2 0.00 0.66 0.00 92 1006.9
20260506124531 54 11 6.1 13.9 0.00 0.66 0.00 92 1006.9
20260506121530 54 33 4.3 12.2 0.00 0.66 0.00 92 1006.9
20260506120528 55 35 3.5 13.0 0.00 0.66 0.00 92 1006.3
20260506115526 55 26 4.3 13.9 0.01 0.66 0.00 92 1006.3
20260506112527 55 11 7.0 12.2 0.02 0.65 0.00 92 1006.3
20260506111530 55 10 7.8 13.0 0.03 0.65 0.00 92 1006.3
20260506110528 54 350 7.0 14.8 0.03 0.65 0.00 93 1005.7
20260506105528 55 9 8.7 14.8 0.04 0.65 0.00 93 1005.7
20260506103527 54 1 8.7 14.8 0.04 0.64 0.00 93 1005.7
20260506102527 54 1 10.4 12.2 0.04 0.63 0.00 93 1005.1
20260506101529 54 351 8.7 11.3 0.04 0.63 0.00 93 1005.1
20260506100527 54 354 7.8 10.4 0.04 0.62 0.00 93 1005.1
20260506095527 54 355 9.6 11.3 0.05 0.61 0.00 93 1005.1
20260506094530 53 6 9.6 11.3 0.06 0.61 0.00 93 1005.1
20260506093528 53 4 10.4 12.2 0.06 0.60 0.00 93 1005.1
20260506092527 53 6 11.3 12.2 0.07 0.59 0.00 93 1005.1
20260506091530 53 18 7.0 10.4 0.08 0.59 0.00 93 1005.1
20260506090528 53 2 7.0 13.0 0.09 0.58 0.00 93 1004.7
20260506085527 53 1 5.2 13.0 0.08 0.57 0.00 93 1004.7